Regional Weather Roundup
Issued by NWS

Home | Current Version | Previous Version | Text Only | Print | Product List | Glossary Off
Versions: 1 2 3 4 5 6 7 8 9 10 11 12 13 14 15 16 17 18 19 20 21 22 23 24 25 26 27 28 29 30 31 32 33 34 35 36 37 38 39 40 41 42 43 44 45 46 47 48 49 50

000
ASUS43 KOAX 162302
RWRNE

WEATHER ROUNDUP FOR NEBRASKA
NATIONAL WEATHER SERVICE OMAHA NE
600 PM CDT WED APR 16 2014

NOTES: SATELLITE DATA IS BEING USED TO AUGMENT CLOUD COVER ABOVE
       12000 FEET.
       "FAIR" INDICATES FEW OR NO CLOUDS BELOW 12,000 FEET WITH NO
       SIGNIFICANT WEATHER AND/OR OBSTRUCTIONS TO VISIBILITY.

  * THESE STATIONS DO NOT REPORT WEATHER SUCH AS RAIN...SNOW OR FOG.

NEZ001>004-019>022-054>056-170000-
NEBRASKA PANHANDLE

CITY           SKY/WX    TMP DP  RH WIND       PRES   REMARKS
SCOTTSBLUFF    MOSUNNY   52  28  39 N17G23    29.96R
ALLIANCE       MOSUNNY   47  33  58 NE20G25   29.97R
CHADRON        PTSUNNY   47  34  60 NE9       30.01R
KIMBALL        MOSUNNY   50  17  27 N18G24    29.94S
SIDNEY         CLOUDY    50  28  42 NE18G25   29.97R
$$

NEZ057>060-069>072-079>082-170000-
SOUTHWEST NEBRASKA

CITY           SKY/WX    TMP DP  RH WIND       PRES   REMARKS
NORTH PLATTE   CLOUDY    46  33  60 N20G26    29.98R
IMPERIAL       MOSUNNY   53  32  44 N20       29.96R
LEXINGTON      MOSUNNY   52  35  51 N22       29.96R
MCCOOK         CLOUDY    54  34  46 N16       29.94R
OGALLALA       MOSUNNY   50  32  49 N22       29.98R
$$

NEZ005>010-023>029-035>040-094-170000-
NORTH CENTRAL NEBRASKA

CITY           SKY/WX    TMP DP  RH WIND       PRES   REMARKS
VALENTINE      CLOUDY    34  27  75 N18G24    30.05R WCI  23
AINSWORTH      CLOUDY    34  29  83 N21G26    30.03R WCI  22
BROKEN BOW     CLOUDY    41  31  67 N26G33    29.97R
O`NEILL        CLOUDY    35  26  69 N30       29.99R WCI  22
ORD            CLOUDY    38  28  67 N25G35    29.98R WCI  27
THEDFORD       CLOUDY    38  31  75 N17G23    30.02R WCI  29
$$

NEZ041-046>049-061>064-073>077-083>087-170000-
SOUTH CENTRAL NEBRASKA

CITY           SKY/WX    TMP DP  RH WIND       PRES   REMARKS
GRAND ISLAND   PTSUNNY   45  31  58 N25G32    29.96R
AURORA         CLOUDY    46  32  59 N28G35    29.93R
HASTINGS       MOSUNNY   49  33  54 N23G32    29.93R
HEBRON         SUNNY     52  34  50 NW18G32   29.90R
HOLDREGE       SUNNY     51  34  51 N16G26    29.93R
KEARNEY *      MOSUNNY   50  34  53 N25G31    29.95R
YORK           CLOUDY    45  32  61 NW21G29   29.92R
$$

NEZ011>018-030>034-042>045-170000-
NORTHEAST NEBRASKA

CITY           SKY/WX    TMP DP  RH WIND       PRES   REMARKS
NORFOLK        CLOUDY    37  29  72 NW32G40   29.90R WCI  24
ALBION         CLOUDY    38  28  67 NW23G31   29.95R WCI  27
BLAIR          CLOUDY    43  32  64 NW23G39   29.83R
COLUMBUS *     CLOUDY    41  27  56 NW28G36   29.91R
FREMONT        CLOUDY    42  32  66 NW31G40   29.87R
TEKAMAH        CLOUDY    43  32  65 NW32G40   29.83R
$$

NEZ050>053-065>068-078-088>093-170000-
SOUTHEAST NEBRASKA

CITY           SKY/WX    TMP DP  RH WIND       PRES   REMARKS
LINCOLN        SUNNY     50  31  48 NW26G41   29.88R
OMAHA EPPLEY   PTSUNNY   50  33  52 NW29G38   29.83R
BEATRICE       SUNNY     54  35  48 NW31G37   29.86R
NEBRASKA CITY  MOSUNNY   58  36  44 NW29G38   29.79R
PLATTSMOUTH    MOSUNNY   53  33  45 NW29G37   29.80R
$$

NEZ044-045-051>053-067-170000-
OMAHA AREA

CITY           SKY/WX    TMP DP  RH WIND       PRES   REMARKS
OMAHA EPPLEY   PTSUNNY   50  33  52 NW29G38   29.83R
BLAIR          CLOUDY    43  32  64 NW23G39   29.83R
FREMONT        CLOUDY    42  32  66 NW31G40   29.87R
MILLARD        MOSUNNY   47  32  55 NW30G37   29.82R
OFFUTT AFB     MOSUNNY   53  35  50 NW29G37   29.80R
PLATTSMOUTH    MOSUNNY   53  33  45 NW29G37   29.80R
WAHOO          FAIR      44  31  60 NW32G41   29.86R
$$



USA.gov is the U.S. government's official web portal to all federal, state and local government web resources and services.